PIMOHWEATHER Station Historical Data
Daily Summary for January 08, 2020 Units:  Metric    English   Both
Daily Weekly Monthly Yearly
  High: Low: Average:
Temperature: 32.0 °C 25.0 °C 27.5 °C
Dew Point: 27.0 °C 22.0 °C 23.6 °C
Humidity: 92% 66% 80%
Wind Speed: 23km/h 0km/h 8.5km/h
Wind Gust: 28km/h - -
Wind- - SE
Pressure: 1013.7 hPa 1009.5 hPa -
Precipitation: 0.25 mm    
 
 
Tabular Data for January 08, 2020
Time Temperature Dew Point Pressure Wind Wind Speed Wind Gust Humidity Rainfall Rate (Hourly) solar
00:04 25.0 °C 24.0 °C 1013.0 hPa ESE 3 km/h 8 km/h 91% 2.29 mm 0.00 W/m2
00:09 25.0 °C 24.0 °C 1013.0 hPa East 4 km/h 8 km/h 91% 2.29 mm 0.00 W/m2
00:14 25.0 °C 23.0 °C 1013.0 hPa ENE 4 km/h 8 km/h 91% 2.29 mm 0.00 W/m2
00:19 25.0 °C 23.0 °C 1013.0 hPa SE 1 km/h 4 km/h 91% 2.29 mm 0.00 W/m2
00:24 25.0 °C 23.0 °C 1012.7 hPa SE 4 km/h 4 km/h 91% 2.03 mm 0.00 W/m2
00:29 25.0 °C 23.0 °C 1012.7 hPa SSE 3 km/h 4 km/h 91% 1.78 mm 0.00 W/m2
00:34 25.0 °C 23.0 °C 1012.7 hPa East 3 km/h 4 km/h 91% 1.78 mm 0.00 W/m2
00:39 25.0 °C 23.0 °C 1012.7 hPa ESE 5 km/h 8 km/h 90% 1.27 mm 0.00 W/m2
00:44 25.0 °C 23.0 °C 1012.7 hPa ESE 5 km/h 8 km/h 90% 1.02 mm 0.00 W/m2
00:49 25.0 °C 23.0 °C 1012.7 hPa SE 11 km/h 16 km/h 90% 0.76 mm 0.00 W/m2
00:54 25.0 °C 23.0 °C 1012.7 hPa SE 10 km/h 16 km/h 90% 0.51 mm 0.00 W/m2
00:59 25.0 °C 23.0 °C 1012.9 hPa SE 8 km/h 12 km/h 90% 0.25 mm 0.00 W/m2
01:04 25.0 °C 23.0 °C 1012.9 hPa SE 10 km/h 12 km/h 89% 0.25 mm 0.00 W/m2
01:09 25.0 °C 23.0 °C 1012.7 hPa SE 7 km/h 12 km/h 89% 0.00 mm 0.00 W/m2
01:14 25.0 °C 23.0 °C 1012.7 hPa SE 5 km/h 8 km/h 89% 0.00 mm 0.00 W/m2
01:19 25.0 °C 23.0 °C 1012.7 hPa SE 6 km/h 8 km/h 89% 0.00 mm 0.00 W/m2
01:24 25.0 °C 23.0 °C 1012.5 hPa Calm     89% 0.00 mm 0.00 W/m2
01:29 25.0 °C 23.0 °C 1012.3 hPa SE 3 km/h 4 km/h 88% 0.00 mm 0.00 W/m2
01:34 25.0 °C 23.0 °C 1012.3 hPa SSE 1 km/h 4 km/h 88% 0.00 mm 0.00 W/m2
01:39 25.0 °C 23.0 °C 1012.3 hPa SE 4 km/h 4 km/h 88% 0.00 mm 0.00 W/m2
01:44 25.0 °C 23.0 °C 1012.3 hPa SE 4 km/h 4 km/h 88% 0.00 mm 0.00 W/m2
01:49 25.0 °C 23.0 °C 1012.3 hPa SSE 3 km/h 4 km/h 88% 0.00 mm 0.00 W/m2
01:54 25.0 °C 23.0 °C 1012.3 hPa Calm   4 km/h 88% 0.00 mm 0.00 W/m2
01:59 25.0 °C 23.0 °C 1012.3 hPa WSW 3 km/h 4 km/h 88% 0.00 mm 0.00 W/m2
02:04 25.0 °C 23.0 °C 1012.3 hPa Calm   4 km/h 88% 0.00 mm 0.00 W/m2
02:09 25.0 °C 23.0 °C 1012.3 hPa SE 4 km/h 4 km/h 88% 0.00 mm 0.00 W/m2
02:14 25.0 °C 23.0 °C 1012.3 hPa SSE 6 km/h 8 km/h 87% 0.00 mm 0.00 W/m2
02:19 25.0 °C 23.0 °C 1012.3 hPa SE 5 km/h 8 km/h 87% 0.00 mm 0.00 W/m2
02:24 25.0 °C 23.0 °C 1012.3 hPa SSE 6 km/h 8 km/h 87% 0.00 mm 0.00 W/m2
02:29 25.0 °C 23.0 °C 1012.2 hPa SSE 2 km/h 4 km/h 87% 0.00 mm 0.00 W/m2
02:34 25.0 °C 23.0 °C 1012.0 hPa Calm     87% 0.00 mm 0.00 W/m2
02:39 25.0 °C 23.0 °C 1012.0 hPa Calm     87% 0.00 mm 0.00 W/m2
02:44 25.0 °C 23.0 °C 1012.0 hPa Calm     87% 0.00 mm 0.00 W/m2
02:49 25.0 °C 23.0 °C 1012.0 hPa SE 4 km/h 4 km/h 87% 0.00 mm 0.00 W/m2
02:54 26.0 °C 23.0 °C 1012.0 hPa SSE 4 km/h 4 km/h 87% 0.00 mm 0.00 W/m2
02:59 26.0 °C 23.0 °C 1012.0 hPa SSE 4 km/h 4 km/h 86% 0.00 mm 0.00 W/m2
03:04 26.0 °C 23.0 °C 1012.0 hPa SE 10 km/h 12 km/h 87% 0.00 mm 0.00 W/m2
03:09 25.0 °C 23.0 °C 1012.0 hPa SE 8 km/h 12 km/h 87% 0.00 mm 0.00 W/m2
03:14 25.0 °C 23.0 °C 1012.0 hPa SE 6 km/h 8 km/h 87% 0.00 mm 0.00 W/m2
03:19 25.0 °C 23.0 °C 1012.0 hPa SE 3 km/h 8 km/h 87% 0.00 mm 0.00 W/m2
03:24 26.0 °C 23.0 °C 1012.0 hPa ESE 4 km/h 4 km/h 87% 0.00 mm 0.00 W/m2
03:29 26.0 °C 23.0 °C 1012.0 hPa SE 5 km/h 8 km/h 87% 0.00 mm 0.00 W/m2
03:34 26.0 °C 23.0 °C 1012.0 hPa SE 5 km/h 8 km/h 87% 0.00 mm 0.00 W/m2
03:39 26.0 °C 23.0 °C 1012.0 hPa SE 3 km/h 4 km/h 88% 0.00 mm 0.00 W/m2
03:44 26.0 °C 23.0 °C 1012.0 hPa SE 4 km/h 4 km/h 88% 0.00 mm 0.00 W/m2
03:49 26.0 °C 23.0 °C 1012.0 hPa ESE 5 km/h 8 km/h 87% 0.00 mm 0.00 W/m2
03:54 26.0 °C 23.0 °C 1012.0 hPa ESE 1 km/h 4 km/h 87% 0.00 mm 0.00 W/m2
03:59 26.0 °C 23.0 °C 1012.0 hPa NNE 5 km/h 8 km/h 87% 0.00 mm 0.00 W/m2
04:04 26.0 °C 23.0 °C 1011.6 hPa NNE 5 km/h 8 km/h 87% 0.00 mm 0.00 W/m2
04:09 26.0 °C 23.0 °C 1012.0 hPa NNE 5 km/h 8 km/h 87% 0.00 mm 0.00 W/m2
04:14 26.0 °C 23.0 °C 1012.0 hPa NNE 6 km/h 12 km/h 87% 0.00 mm 0.00 W/m2
04:19 26.0 °C 23.0 °C 1012.0 hPa NNE 5 km/h 8 km/h 87% 0.00 mm 0.00 W/m2
04:24 26.0 °C 23.0 °C 1012.0 hPa NNE 6 km/h 8 km/h 87% 0.00 mm 0.00 W/m2
04:29 26.0 °C 23.0 °C 1012.0 hPa NNE 7 km/h 8 km/h 88% 0.00 mm 0.00 W/m2
04:34 26.0 °C 24.0 °C 1012.0 hPa NNE 5 km/h 8 km/h 88% 0.00 mm 0.00 W/m2
04:39 26.0 °C 23.0 °C 1012.0 hPa North 7 km/h 8 km/h 89% 0.00 mm 0.00 W/m2
04:44 26.0 °C 24.0 °C 1012.2 hPa NE 1 km/h 4 km/h 89% 0.00 mm 0.00 W/m2
04:49 25.0 °C 24.0 °C 1012.3 hPa Calm   4 km/h 89% 0.00 mm 0.00 W/m2
04:54 25.0 °C 24.0 °C 1012.3 hPa NE 1 km/h 4 km/h 89% 0.00 mm 0.00 W/m2
04:59 25.0 °C 23.0 °C 1012.3 hPa Calm   4 km/h 90% 0.00 mm 0.00 W/m2
05:04 25.0 °C 24.0 °C 1012.3 hPa NE 1 km/h 4 km/h 90% 0.00 mm 0.00 W/m2
05:09 25.0 °C 24.0 °C 1012.3 hPa NE 1 km/h 4 km/h 90% 0.00 mm 0.00 W/m2
05:14 25.0 °C 24.0 °C 1012.3 hPa NE 3 km/h 4 km/h 91% 0.00 mm 0.00 W/m2
05:19 25.0 °C 24.0 °C 1012.3 hPa NNE 4 km/h 4 km/h 91% 0.00 mm 0.00 W/m2
05:24 25.0 °C 24.0 °C 1012.3 hPa NNE 5 km/h 12 km/h 91% 0.00 mm 0.00 W/m2
05:29 25.0 °C 24.0 °C 1012.3 hPa NNE 4 km/h 12 km/h 92% 0.00 mm 0.00 W/m2
05:34 25.0 °C 24.0 °C 1012.7 hPa NNW 5 km/h 8 km/h 92% 0.00 mm 0.00 W/m2
05:39 25.0 °C 24.0 °C 1012.5 hPa North 6 km/h 8 km/h 92% 0.00 mm 0.00 W/m2
05:44 25.0 °C 23.0 °C 1012.4 hPa North 6 km/h 8 km/h 92% 0.00 mm 0.00 W/m2
05:49 25.0 °C 23.0 °C 1012.6 hPa North 7 km/h 8 km/h 92% 0.00 mm 0.00 W/m2
05:54 25.0 °C 23.0 °C 1012.3 hPa NNW 6 km/h 8 km/h 92% 0.00 mm 0.00 W/m2
05:59 25.0 °C 23.0 °C 1012.5 hPa NNE 6 km/h 12 km/h 92% 0.00 mm 0.00 W/m2
06:04 25.0 °C 23.0 °C 1012.6 hPa NW 4 km/h 8 km/h 92% 0.00 mm 0.00 W/m2
06:09 25.0 °C 23.0 °C 1012.5 hPa NNE 3 km/h 4 km/h 92% 0.00 mm 0.00 W/m2
06:14 25.0 °C 23.0 °C 1012.3 hPa SE 1 km/h 4 km/h 92% 0.00 mm 0.00 W/m2
06:19 25.0 °C 23.0 °C 1012.3 hPa SE 2 km/h 4 km/h 91% 0.00 mm 0.00 W/m2
06:24 25.0 °C 23.0 °C 1012.3 hPa SE 1 km/h 4 km/h 91% 0.00 mm 1.09 W/m2
06:29 25.0 °C 23.0 °C 1012.6 hPa Calm     91% 0.00 mm 4.93 W/m2
06:34 25.0 °C 23.0 °C 1012.3 hPa Calm     91% 0.00 mm 8.61 W/m2
06:39 25.0 °C 23.0 °C 1012.5 hPa NE 1 km/h 4 km/h 92% 0.00 mm 12.48 W/m2
06:44 25.0 °C 24.0 °C 1012.6 hPa Calm   4 km/h 92% 0.00 mm 18.91 W/m2
06:49 25.0 °C 23.0 °C 1012.7 hPa Calm     91% 0.00 mm 23.20 W/m2
06:54 25.0 °C 24.0 °C 1012.7 hPa Calm     91% 0.00 mm 27.58 W/m2
06:59 25.0 °C 24.0 °C 1012.7 hPa Calm   4 km/h 91% 0.00 mm 30.80 W/m2
07:04 25.0 °C 23.0 °C 1012.7 hPa Calm   4 km/h 90% 0.00 mm 33.75 W/m2
07:09 25.0 °C 23.0 °C 1012.7 hPa NNE 3 km/h 4 km/h 90% 0.00 mm 37.34 W/m2
07:14 26.0 °C 23.0 °C 1012.7 hPa Calm   4 km/h 89% 0.00 mm 41.31 W/m2
07:19 26.0 °C 24.0 °C 1012.7 hPa North 5 km/h 8 km/h 88% 0.00 mm 44.05 W/m2
07:24 26.0 °C 24.0 °C 1013.0 hPa NNW 3 km/h 8 km/h 87% 0.00 mm 47.59 W/m2
07:29 26.0 °C 24.0 °C 1012.9 hPa NNE 2 km/h 4 km/h 86% 0.00 mm 50.71 W/m2
07:34 26.0 °C 24.0 °C 1013.0 hPa North 5 km/h 8 km/h 85% 0.00 mm 54.65 W/m2
07:39 26.0 °C 24.0 °C 1013.0 hPa NNW 6 km/h 8 km/h 85% 0.00 mm 57.02 W/m2
07:44 27.0 °C 24.0 °C 1013.0 hPa NNW 4 km/h 4 km/h 84% 0.00 mm 63.71 W/m2
07:49 27.0 °C 24.0 °C 1013.2 hPa NW 6 km/h 8 km/h 83% 0.00 mm 73.90 W/m2
07:54 27.0 °C 24.0 °C 1013.3 hPa NNW 5 km/h 8 km/h 83% 0.00 mm 75.30 W/m2
07:59 27.0 °C 24.0 °C 1013.3 hPa North 4 km/h 8 km/h 84% 0.00 mm 81.20 W/m2
08:04 27.0 °C 24.0 °C 1013.5 hPa North 6 km/h 12 km/h 84% 0.00 mm 87.78 W/m2
08:09 26.0 °C 24.0 °C 1013.5 hPa North 10 km/h 16 km/h 85% 0.00 mm 85.48 W/m2
08:14 26.0 °C 24.0 °C 1013.7 hPa North 9 km/h 16 km/h 86% 0.00 mm 136.72 W/m2
08:19 27.0 °C 24.0 °C 1013.7 hPa NNE 10 km/h 12 km/h 85% 0.00 mm 169.65 W/m2
08:24 27.0 °C 24.0 °C 1013.7 hPa NE 6 km/h 8 km/h 84% 0.00 mm 141.83 W/m2
08:29 27.0 °C 24.0 °C 1013.7 hPa NNE 8 km/h 8 km/h 84% 0.00 mm 110.77 W/m2
08:34 27.0 °C 24.0 °C 1013.7 hPa North 6 km/h 8 km/h 84% 0.00 mm 103.91 W/m2
08:39 27.0 °C 24.0 °C 1013.7 hPa NNE 8 km/h 8 km/h 85% 0.00 mm 107.77 W/m2
08:44 27.0 °C 24.0 °C 1013.7 hPa NNE 8 km/h 8 km/h 85% 0.00 mm 105.23 W/m2
08:49 27.0 °C 24.0 °C 1013.7 hPa North 6 km/h 8 km/h 84% 0.00 mm 175.25 W/m2
08:54 27.0 °C 24.0 °C 1013.7 hPa North 8 km/h 12 km/h 84% 0.00 mm 236.37 W/m2
08:59 28.0 °C 24.0 °C 1013.7 hPa North 7 km/h 8 km/h 83% 0.00 mm 233.78 W/m2
09:04 27.0 °C 24.0 °C 1013.7 hPa NNW 7 km/h 12 km/h 82% 0.00 mm 213.55 W/m2
09:09 28.0 °C 24.0 °C 1013.7 hPa NW 12 km/h 16 km/h 82% 0.00 mm 274.71 W/m2
09:14 28.0 °C 24.0 °C 1013.7 hPa NW 14 km/h 16 km/h 81% 0.00 mm 230.33 W/m2
09:19 28.0 °C 24.0 °C 1013.7 hPa NW 13 km/h 16 km/h 81% 0.00 mm 251.08 W/m2
09:24 28.0 °C 24.0 °C 1013.7 hPa NNW 9 km/h 12 km/h 80% 0.00 mm 235.88 W/m2
09:29 28.0 °C 24.0 °C 1013.3 hPa North 13 km/h 16 km/h 80% 0.00 mm 213.10 W/m2
09:34 28.0 °C 24.0 °C 1013.5 hPa NW 12 km/h 16 km/h 79% 0.00 mm 213.91 W/m2
09:39 28.0 °C 24.0 °C 1013.5 hPa NNW 13 km/h 16 km/h 80% 0.00 mm 212.66 W/m2
09:44 28.0 °C 24.0 °C 1013.3 hPa NW 14 km/h 16 km/h 79% 0.00 mm 232.43 W/m2
09:49 28.0 °C 24.0 °C 1013.3 hPa North 13 km/h 16 km/h 78% 0.00 mm 251.54 W/m2
09:54 28.0 °C 24.0 °C 1013.3 hPa North 15 km/h 20 km/h 78% 0.00 mm 251.93 W/m2
09:59 28.0 °C 24.0 °C 1013.3 hPa NNW 17 km/h 20 km/h 78% 0.00 mm 282.35 W/m2
10:04 28.0 °C 24.0 °C 1013.3 hPa NNW 15 km/h 16 km/h 79% 0.00 mm 283.11 W/m2
10:09 29.0 °C 25.0 °C 1013.3 hPa NNW 17 km/h 20 km/h 78% 0.00 mm 287.88 W/m2
10:14 29.0 °C 25.0 °C 1013.3 hPa NW 18 km/h 20 km/h 79% 0.00 mm 286.53 W/m2
10:19 29.0 °C 24.0 °C 1013.3 hPa NW 14 km/h 16 km/h 79% 0.00 mm 306.13 W/m2
10:24 29.0 °C 24.0 °C 1013.3 hPa North 14 km/h 20 km/h 77% 0.00 mm 303.65 W/m2
10:29 29.0 °C 25.0 °C 1013.3 hPa NW 15 km/h 16 km/h 77% 0.00 mm 332.24 W/m2
10:34 29.0 °C 25.0 °C 1013.2 hPa NW 17 km/h 20 km/h 77% 0.00 mm 349.44 W/m2
10:39 29.0 °C 24.0 °C 1012.9 hPa NNW 15 km/h 20 km/h 77% 0.00 mm 380.36 W/m2
10:44 30.0 °C 25.0 °C 1012.9 hPa NNW 15 km/h 20 km/h 78% 0.00 mm 378.65 W/m2
10:49 29.0 °C 25.0 °C 1012.6 hPa NW 22 km/h 24 km/h 78% 0.00 mm 232.07 W/m2
10:54 29.0 °C 25.0 °C 1012.6 hPa NW 15 km/h 20 km/h 79% 0.00 mm 153.29 W/m2
10:59 29.0 °C 25.0 °C 1012.6 hPa NNW 22 km/h 24 km/h 78% 0.00 mm 111.36 W/m2
11:04 29.0 °C 24.0 °C 1012.6 hPa NNW 13 km/h 16 km/h 77% 0.00 mm 121.92 W/m2
11:09 29.0 °C 25.0 °C 1012.6 hPa NW 14 km/h 16 km/h 78% 0.00 mm 139.97 W/m2
11:14 29.0 °C 25.0 °C 1012.6 hPa NW 14 km/h 16 km/h 78% 0.00 mm 139.29 W/m2
11:19 29.0 °C 25.0 °C 1012.6 hPa NW 18 km/h 20 km/h 79% 0.00 mm 140.85 W/m2
11:24 29.0 °C 25.0 °C 1012.3 hPa North 17 km/h 20 km/h 80% 0.00 mm 119.43 W/m2
11:29 29.0 °C 25.0 °C 1012.3 hPa NW 19 km/h 24 km/h 81% 0.00 mm 206.08 W/m2
11:34 29.0 °C 25.0 °C 1012.3 hPa NNW 15 km/h 24 km/h 80% 0.00 mm 439.01 W/m2
11:39 30.0 °C 25.0 °C 1012.2 hPa North 18 km/h 24 km/h 79% 0.00 mm 435.71 W/m2
11:44 30.0 °C 25.0 °C 1012.1 hPa NNW 22 km/h 24 km/h 79% 0.00 mm 433.27 W/m2
11:49 29.0 °C 25.0 °C 1012.1 hPa NNW 19 km/h 20 km/h 79% 0.00 mm 457.58 W/m2
11:54 29.0 °C 25.0 °C 1011.9 hPa North 17 km/h 20 km/h 79% 0.00 mm 463.16 W/m2
11:59 30.0 °C 25.0 °C 1011.9 hPa North 18 km/h 20 km/h 78% 0.00 mm 505.49 W/m2
12:04 30.0 °C 25.0 °C 1011.9 hPa North 20 km/h 24 km/h 77% 0.00 mm 260.62 W/m2
12:09 29.0 °C 25.0 °C 1011.8 hPa NNE 17 km/h 24 km/h 78% 0.00 mm 259.37 W/m2
12:14 29.0 °C 25.0 °C 1011.7 hPa North 20 km/h 24 km/h 79% 0.00 mm 223.21 W/m2
12:19 29.0 °C 25.0 °C 1011.6 hPa NNE 18 km/h 20 km/h 78% 0.00 mm 244.52 W/m2
12:24 29.0 °C 25.0 °C 1011.6 hPa North 16 km/h 20 km/h 77% 0.00 mm 274.32 W/m2
12:29 30.0 °C 25.0 °C 1011.4 hPa North 19 km/h 24 km/h 76% 0.00 mm 523.47 W/m2
12:34 30.0 °C 25.0 °C 1011.2 hPa North 21 km/h 24 km/h 75% 0.00 mm 501.21 W/m2
12:39 31.0 °C 25.0 °C 1011.2 hPa North 11 km/h 20 km/h 74% 0.00 mm 494.80 W/m2
12:44 31.0 °C 25.0 °C 1011.1 hPa North 18 km/h 24 km/h 72% 0.00 mm 469.33 W/m2
12:49 31.0 °C 25.0 °C 1010.9 hPa North 17 km/h 24 km/h 71% 0.00 mm 439.87 W/m2
12:54 31.0 °C 25.0 °C 1010.9 hPa North 18 km/h 20 km/h 71% 0.00 mm 443.81 W/m2
12:59 32.0 °C 25.0 °C 1010.9 hPa East 10 km/h 12 km/h 71% 0.00 mm 472.85 W/m2
13:04 32.0 °C 25.0 °C 1010.9 hPa SE 10 km/h 12 km/h 68% 0.00 mm 480.97 W/m2
13:09 32.0 °C 26.0 °C 1010.9 hPa ESE 15 km/h 16 km/h 77% 0.00 mm 191.83 W/m2
13:14 31.0 °C 27.0 °C 1010.9 hPa ESE 15 km/h 20 km/h 79% 0.00 mm 455.82 W/m2
13:19 31.0 °C 26.0 °C 1010.5 hPa SE 14 km/h 16 km/h 77% 0.00 mm 444.76 W/m2
13:24 31.0 °C 26.0 °C 1010.8 hPa SE 21 km/h 24 km/h 79% 0.00 mm 260.89 W/m2
13:29 31.0 °C 26.0 °C 1010.5 hPa SE 18 km/h 24 km/h 79% 0.00 mm 497.34 W/m2
13:34 30.0 °C 26.0 °C 1010.5 hPa SE 17 km/h 20 km/h 77% 0.00 mm 439.38 W/m2
13:39 30.0 °C 25.0 °C 1010.3 hPa SE 20 km/h 28 km/h 76% 0.00 mm 451.20 W/m2
13:44 30.0 °C 25.0 °C 1010.5 hPa SE 19 km/h 24 km/h 76% 0.00 mm 468.62 W/m2
13:49 31.0 °C 25.0 °C 1010.3 hPa SE 17 km/h 20 km/h 75% 0.00 mm 476.86 W/m2
13:54 31.0 °C 25.0 °C 1010.2 hPa SE 15 km/h 20 km/h 73% 0.00 mm 473.20 W/m2
13:59 31.0 °C 25.0 °C 1010.2 hPa SE 22 km/h 24 km/h 74% 0.00 mm 448.54 W/m2
14:04 31.0 °C 25.0 °C 1010.2 hPa SE 15 km/h 20 km/h 73% 0.00 mm 443.17 W/m2
14:09 32.0 °C 26.0 °C 1009.9 hPa SSE 13 km/h 16 km/h 72% 0.00 mm 452.08 W/m2
14:14 32.0 °C 26.0 °C 1009.9 hPa South 10 km/h 12 km/h 70% 0.00 mm 508.50 W/m2
14:19 32.0 °C 26.0 °C 1009.9 hPa South 14 km/h 16 km/h 72% 0.00 mm 447.19 W/m2
14:24 31.0 °C 25.0 °C 1009.8 hPa South 13 km/h 16 km/h 72% 0.00 mm 384.60 W/m2
14:29 31.0 °C 26.0 °C 1009.7 hPa SSW 10 km/h 12 km/h 72% 0.00 mm 392.87 W/m2
14:34 31.0 °C 26.0 °C 1009.8 hPa South 14 km/h 20 km/h 74% 0.00 mm 107.60 W/m2
14:39 31.0 °C 26.0 °C 1009.6 hPa South 12 km/h 16 km/h 75% 0.00 mm 345.08 W/m2
14:44 31.0 °C 26.0 °C 1009.8 hPa SSE 11 km/h 12 km/h 76% 0.00 mm 283.00 W/m2
14:49 31.0 °C 26.0 °C 1009.9 hPa SSE 10 km/h 12 km/h 76% 0.00 mm 87.57 W/m2
14:54 30.0 °C 26.0 °C 1009.9 hPa South 9 km/h 12 km/h 76% 0.00 mm 80.72 W/m2
14:59 30.0 °C 25.0 °C 1009.9 hPa South 8 km/h 12 km/h 76% 0.00 mm 80.93 W/m2
15:04 30.0 °C 25.0 °C 1009.5 hPa South 8 km/h 12 km/h 77% 0.00 mm 126.00 W/m2
15:09 30.0 °C 25.0 °C 1009.8 hPa South 9 km/h 12 km/h 77% 0.00 mm 297.10 W/m2
15:14 30.0 °C 25.0 °C 1009.7 hPa South 8 km/h 12 km/h 77% 0.00 mm 376.40 W/m2
15:19 31.0 °C 26.0 °C 1009.7 hPa South 6 km/h 12 km/h 76% 0.00 mm 382.30 W/m2
15:24 31.0 °C 25.0 °C 1009.9 hPa SSW 10 km/h 16 km/h 77% 0.00 mm 119.20 W/m2
15:29 30.0 °C 25.0 °C 1009.9 hPa South 9 km/h 12 km/h 77% 0.00 mm 97.24 W/m2
15:34 30.0 °C 26.0 °C 1009.9 hPa South 9 km/h 12 km/h 78% 0.00 mm 101.51 W/m2
15:39 30.0 °C 26.0 °C 1009.9 hPa SSE 9 km/h 12 km/h 78% 0.00 mm 97.78 W/m2
15:44 30.0 °C 26.0 °C 1009.9 hPa SSW 9 km/h 12 km/h 78% 0.00 mm 88.49 W/m2
15:49 30.0 °C 25.0 °C 1009.9 hPa West 3 km/h 4 km/h 78% 0.00 mm 96.54 W/m2
15:54 30.0 °C 25.0 °C 1009.9 hPa West 5 km/h 8 km/h 77% 0.00 mm 339.16 W/m2
15:59 30.0 °C 25.0 °C 1009.9 hPa SE 4 km/h 8 km/h 76% 0.00 mm 343.32 W/m2
16:04 30.0 °C 25.0 °C 1009.9 hPa ENE 13 km/h 16 km/h 74% 0.00 mm 128.55 W/m2
16:09 30.0 °C 23.0 °C 1009.9 hPa NNE 18 km/h 20 km/h 67% 0.00 mm 178.85 W/m2
16:14 31.0 °C 24.0 °C 1009.9 hPa NNE 15 km/h 20 km/h 66% 0.00 mm 321.76 W/m2
16:19 31.0 °C 24.0 °C 1010.1 hPa NNE 19 km/h 20 km/h 67% 0.00 mm 113.41 W/m2
16:24 30.0 °C 24.0 °C 1010.1 hPa NNE 16 km/h 20 km/h 67% 0.00 mm 88.09 W/m2
16:29 30.0 °C 24.0 °C 1010.0 hPa NE 9 km/h 16 km/h 67% 0.00 mm 70.05 W/m2
16:34 30.0 °C 24.0 °C 1010.1 hPa NNE 16 km/h 20 km/h 68% 0.00 mm 64.32 W/m2
16:39 30.0 °C 24.0 °C 1010.1 hPa NE 16 km/h 24 km/h 68% 0.00 mm 62.10 W/m2
16:44 30.0 °C 24.0 °C 1010.1 hPa NNE 15 km/h 20 km/h 69% 0.00 mm 59.79 W/m2
16:49 30.0 °C 24.0 °C 1010.2 hPa NE 16 km/h 20 km/h 70% 0.00 mm 58.66 W/m2
16:54 30.0 °C 24.0 °C 1010.2 hPa NE 12 km/h 16 km/h 70% 0.00 mm 49.12 W/m2
16:59 30.0 °C 24.0 °C 1010.2 hPa NNE 23 km/h 24 km/h 72% 0.00 mm 41.32 W/m2
17:04 29.0 °C 24.0 °C 1010.2 hPa NE 12 km/h 16 km/h 71% 0.00 mm 33.05 W/m2
17:09 29.0 °C 23.0 °C 1010.5 hPa NNW 8 km/h 12 km/h 71% 0.00 mm 23.07 W/m2
17:14 29.0 °C 23.0 °C 1010.5 hPa NNE 17 km/h 24 km/h 72% 0.00 mm 20.08 W/m2
17:19 29.0 °C 23.0 °C 1010.6 hPa NE 20 km/h 24 km/h 72% 0.00 mm 18.85 W/m2
17:24 29.0 °C 23.0 °C 1010.6 hPa NE 16 km/h 28 km/h 71% 0.00 mm 10.84 W/m2
17:29 29.0 °C 23.0 °C 1010.8 hPa NE 17 km/h 24 km/h 72% 0.00 mm 4.63 W/m2
17:34 29.0 °C 23.0 °C 1010.9 hPa NNE 21 km/h 24 km/h 72% 0.00 mm 2.06 W/m2
17:39 28.0 °C 23.0 °C 1010.9 hPa NNE 17 km/h 28 km/h 73% 0.00 mm 0.71 W/m2
17:44 28.0 °C 23.0 °C 1010.9 hPa NE 14 km/h 20 km/h 73% 0.00 mm 0.00 W/m2
17:49 28.0 °C 23.0 °C 1010.9 hPa NE 9 km/h 16 km/h 73% 0.00 mm 0.00 W/m2
17:54 28.0 °C 23.0 °C 1010.9 hPa NE 20 km/h 24 km/h 73% 0.00 mm 0.00 W/m2
17:59 28.0 °C 22.0 °C 1010.9 hPa NNE 16 km/h 24 km/h 72% 0.00 mm 0.00 W/m2
18:04 28.0 °C 22.0 °C 1010.9 hPa NNE 18 km/h 20 km/h 73% 0.00 mm 0.00 W/m2
18:09 28.0 °C 22.0 °C 1010.9 hPa NNE 17 km/h 20 km/h 73% 0.00 mm 0.00 W/m2
18:14 28.0 °C 22.0 °C 1011.2 hPa NNE 15 km/h 20 km/h 73% 0.00 mm 0.00 W/m2
18:19 28.0 °C 23.0 °C 1011.2 hPa NNE 19 km/h 24 km/h 74% 0.00 mm 0.00 W/m2
18:24 28.0 °C 22.0 °C 1011.2 hPa NNE 13 km/h 16 km/h 73% 0.00 mm 0.00 W/m2
18:29 28.0 °C 22.0 °C 1011.2 hPa North 10 km/h 12 km/h 74% 0.00 mm 0.00 W/m2
18:34 28.0 °C 23.0 °C 1011.2 hPa North 12 km/h 16 km/h 74% 0.00 mm 0.00 W/m2
18:39 27.0 °C 22.0 °C 1011.2 hPa NNE 12 km/h 16 km/h 74% 0.00 mm 0.00 W/m2
18:44 28.0 °C 23.0 °C 1011.5 hPa NNE 13 km/h 16 km/h 74% 0.00 mm 0.00 W/m2
18:49 28.0 °C 23.0 °C 1011.6 hPa North 13 km/h 16 km/h 74% 0.00 mm 0.00 W/m2
18:54 27.0 °C 22.0 °C 1011.6 hPa North 10 km/h 12 km/h 74% 0.00 mm 0.00 W/m2
18:59 27.0 °C 22.0 °C 1011.6 hPa NNW 9 km/h 12 km/h 74% 0.00 mm 0.00 W/m2
19:04 27.0 °C 22.0 °C 1011.6 hPa NNE 6 km/h 8 km/h 74% 0.00 mm 0.00 W/m2
19:09 27.0 °C 22.0 °C 1011.6 hPa North 10 km/h 12 km/h 74% 0.00 mm 0.00 W/m2
19:14 27.0 °C 23.0 °C 1011.6 hPa North 8 km/h 12 km/h 75% 0.00 mm 0.00 W/m2
19:19 27.0 °C 22.0 °C 1011.6 hPa North 9 km/h 12 km/h 75% 0.00 mm 0.00 W/m2
19:24 27.0 °C 22.0 °C 1011.6 hPa North 8 km/h 8 km/h 74% 0.00 mm 0.00 W/m2
19:29 27.0 °C 23.0 °C 1011.6 hPa North 10 km/h 12 km/h 75% 0.00 mm 0.00 W/m2
19:34 27.0 °C 22.0 °C 1012.0 hPa NNW 9 km/h 12 km/h 74% 0.00 mm 0.00 W/m2
19:39 27.0 °C 22.0 °C 1012.0 hPa NNW 10 km/h 12 km/h 74% 0.00 mm 0.00 W/m2
19:44 27.0 °C 22.0 °C 1012.0 hPa North 6 km/h 8 km/h 74% 0.00 mm 0.00 W/m2
19:49 27.0 °C 22.0 °C 1011.8 hPa NE 2 km/h 4 km/h 74% 0.00 mm 0.00 W/m2
19:54 27.0 °C 22.0 °C 1012.0 hPa Calm     74% 0.00 mm 0.00 W/m2
19:59 27.0 °C 22.0 °C 1012.0 hPa Calm   4 km/h 74% 0.00 mm 0.00 W/m2
20:04 27.0 °C 22.0 °C 1012.0 hPa NNE 1 km/h 4 km/h 75% 0.00 mm 0.00 W/m2
20:09 27.0 °C 22.0 °C 1012.0 hPa NW 3 km/h 4 km/h 75% 0.00 mm 0.00 W/m2
20:14 27.0 °C 22.0 °C 1012.0 hPa NW 6 km/h 8 km/h 75% 0.00 mm 0.00 W/m2
20:19 27.0 °C 22.0 °C 1011.8 hPa NW 4 km/h 8 km/h 75% 0.00 mm 0.00 W/m2
20:24 27.0 °C 22.0 °C 1012.0 hPa NW 5 km/h 8 km/h 75% 0.00 mm 0.00 W/m2
20:29 27.0 °C 22.0 °C 1012.0 hPa NW 4 km/h 4 km/h 74% 0.00 mm 0.00 W/m2
20:34 27.0 °C 22.0 °C 1012.0 hPa Calm     74% 0.00 mm 0.00 W/m2
20:39 27.0 °C 22.0 °C 1012.0 hPa NNE 5 km/h 8 km/h 74% 0.00 mm 0.00 W/m2
20:44 28.0 °C 22.0 °C 1012.0 hPa NNE 6 km/h 12 km/h 73% 0.00 mm 0.00 W/m2
20:49 28.0 °C 22.0 °C 1012.0 hPa NE 7 km/h 8 km/h 73% 0.00 mm 0.00 W/m2
20:54 28.0 °C 22.0 °C 1012.0 hPa NNE 11 km/h 12 km/h 73% 0.00 mm 0.00 W/m2
20:59 27.0 °C 22.0 °C 1012.0 hPa North 10 km/h 12 km/h 73% 0.00 mm 0.00 W/m2
21:04 28.0 °C 22.0 °C 1012.2 hPa NE 6 km/h 8 km/h 73% 0.00 mm 0.00 W/m2
21:09 28.0 °C 22.0 °C 1012.2 hPa NE 5 km/h 8 km/h 72% 0.00 mm 0.00 W/m2
21:14 28.0 °C 22.0 °C 1012.3 hPa NE 6 km/h 8 km/h 72% 0.00 mm 0.00 W/m2
21:19 28.0 °C 22.0 °C 1012.1 hPa Calm   4 km/h 72% 0.00 mm 0.00 W/m2
21:24 28.0 °C 22.0 °C 1012.0 hPa NNE 5 km/h 8 km/h 72% 0.00 mm 0.00 W/m2
21:29 28.0 °C 22.0 °C 1012.0 hPa NE 3 km/h 8 km/h 72% 0.00 mm 0.00 W/m2
21:34 28.0 °C 22.0 °C 1012.3 hPa ESE 1 km/h 4 km/h 72% 0.00 mm 0.00 W/m2
21:39 28.0 °C 22.0 °C 1012.3 hPa SSE 3 km/h 4 km/h 72% 0.00 mm 0.00 W/m2
21:44 27.0 °C 22.0 °C 1012.3 hPa ENE 2 km/h 4 km/h 72% 0.00 mm 0.00 W/m2
21:49 27.0 °C 22.0 °C 1012.3 hPa SE 3 km/h 4 km/h 73% 0.00 mm 0.00 W/m2
21:54 27.0 °C 22.0 °C 1012.3 hPa SE 3 km/h 4 km/h 74% 0.00 mm 0.00 W/m2
21:59 27.0 °C 23.0 °C 1012.3 hPa SE 5 km/h 8 km/h 75% 0.00 mm 0.00 W/m2
22:04 27.0 °C 23.0 °C 1012.5 hPa SSE 6 km/h 8 km/h 75% 0.00 mm 0.00 W/m2
22:09 27.0 °C 23.0 °C 1012.6 hPa Calm     75% 0.00 mm 0.00 W/m2
22:14 27.0 °C 23.0 °C 1012.3 hPa Calm     75% 0.00 mm 0.00 W/m2
22:19 27.0 °C 23.0 °C 1012.3 hPa Calm     75% 0.00 mm 0.00 W/m2
22:24 27.0 °C 23.0 °C 1012.3 hPa Calm   4 km/h 75% 0.00 mm 0.00 W/m2
22:29 27.0 °C 22.0 °C 1012.5 hPa NW 3 km/h 4 km/h 75% 0.00 mm 0.00 W/m2
22:34 27.0 °C 22.0 °C 1012.4 hPa Calm     75% 0.00 mm 0.00 W/m2
22:39 27.0 °C 22.0 °C 1012.3 hPa Calm     75% 0.00 mm 0.00 W/m2
22:44 27.0 °C 22.0 °C 1012.3 hPa Calm     75% 0.00 mm 0.00 W/m2
22:49 27.0 °C 22.0 °C 1012.5 hPa NNE 5 km/h 8 km/h 75% 0.00 mm 0.00 W/m2
22:54 27.0 °C 22.0 °C 1012.3 hPa NW 6 km/h 8 km/h 74% 0.00 mm 0.00 W/m2
22:59 27.0 °C 22.0 °C 1012.3 hPa NNW 10 km/h 12 km/h 75% 0.00 mm 0.00 W/m2
23:04 27.0 °C 22.0 °C 1012.6 hPa NNW 8 km/h 8 km/h 75% 0.00 mm 0.00 W/m2
23:09 27.0 °C 22.0 °C 1012.5 hPa North 8 km/h 8 km/h 75% 0.00 mm 0.00 W/m2
23:14 27.0 °C 22.0 °C 1012.5 hPa NW 4 km/h 8 km/h 75% 0.00 mm 0.00 W/m2
23:19 27.0 °C 22.0 °C 1012.6 hPa North 5 km/h 8 km/h 75% 0.00 mm 0.00 W/m2
23:24 27.0 °C 22.0 °C 1012.6 hPa North 3 km/h 4 km/h 75% 0.00 mm 0.00 W/m2
23:29 27.0 °C 22.0 °C 1012.6 hPa North 5 km/h 8 km/h 75% 0.00 mm 0.00 W/m2
23:34 27.0 °C 22.0 °C 1012.6 hPa North 5 km/h 8 km/h 75% 0.00 mm 0.00 W/m2
23:39 27.0 °C 22.0 °C 1012.6 hPa NE 5 km/h 8 km/h 75% 0.00 mm 0.00 W/m2
23:44 27.0 °C 22.0 °C 1012.6 hPa North 5 km/h 8 km/h 75% 0.00 mm 0.00 W/m2
23:49 27.0 °C 22.0 °C 1012.6 hPa NE 6 km/h 8 km/h 76% 0.00 mm 0.00 W/m2
23:54 27.0 °C 22.0 °C 1012.6 hPa NE 3 km/h 8 km/h 76% 0.00 mm 0.00 W/m2
23:59 27.0 °C 22.0 °C 1012.6 hPa Calm     76% 0.00 mm 0.00 W/m2
PIMOHWEATHER Philippines
Compliments of Weather Underground - 2 mb